CW3065 Weather Reports


Display with metric or nautical units.
time (UTC)temp
F
wind
direction
speed
MPH
gust
MPH
rain 1hr
in
rain 24hr
in
rain mn
in
humidity
%
barometer
mb
20260508004004 52 274 3.0 6.0 0.00 0.00 0.00 51 1006.9
20260508003504 52 299 2.0 5.0 0.00 0.01 0.00 53 1007.2
20260508002504 51 340 4.0 8.0 0.00 0.01 0.00 54 1007.5
20260508002004 51 314 5.0 8.0 0.00 0.01 0.00 53 1007.6
20260508001504 51 325 6.0 10.0 0.00 0.01 0.00 54 1007.5
20260508001004 50 306 6.0 14.0 0.00 0.01 0.00 54 1007.8
20260508000503 50 283 8.0 14.0 0.00 0.01 0.00 53 1008.1
20260508000004 50 308 9.0 17.0 0.00 0.01 0.00 52 1008.3
20260507235504 50 307 6.0 15.0 0.00 0.01 0.00 49 1007.9
20260507235004 51 313 6.0 12.0 0.00 0.01 0.00 49 1007.9
20260507234504 52 355 9.0 15.0 0.00 0.02 0.00 48 1007.7
20260507234004 52 345 9.0 15.0 0.00 0.02 0.00 47 1007.5
20260507233504 52 282 12.0 16.0 0.00 0.02 0.00 41 1007.5
20260507233004 52 290 7.0 17.0 0.00 0.02 0.00 40 1007.6
20260507232504 53 258 2.0 6.0 0.00 0.02 0.00 39 1007.7
20260507231504 53 269 5.0 14.0 0.00 0.03 0.00 37 1007.5
20260507230004 54 271 7.0 12.0 0.00 0.04 0.00 36 1007.5
20260507225504 55 289 6.0 16.0 0.00 0.04 0.00 36 1007.6
20260507224504 55 225 4.0 7.0 0.00 0.05 0.00 35 1007.6
20260507223505 53 268 9.0 20.0 0.00 0.06 0.00 37 1007.7
20260507222503 54 244 8.0 13.0 0.00 0.08 0.00 37 1007.6
20260507222004 54 264 3.0 13.0 0.00 0.09 0.00 37 1007.7
20260507221504 54 254 4.0 16.0 0.00 0.10 0.00 37 1007.7
20260507221004 53 247 7.0 13.0 0.00 0.11 0.00 37 1007.8
20260507220504 53 263 9.0 23.0 0.00 0.12 0.00 36 1007.8
20260507220004 53 253 6.0 13.0 0.00 0.14 0.00 36 1008.0
20260507215004 52 295 9.0 24.0 0.00 0.17 0.00 39 1008.6
20260507214503 52 252 10.0 20.0 0.00 0.18 0.00 37 1008.9
20260507214004 52 210 10.0 20.0 0.00 0.20 0.00 36 1008.7
20260507213004 52 233 9.0 15.0 0.00 0.24 0.00 37 1008.9
20260507212004 52 213 7.0 16.0 0.00 0.28 0.00 37 1009.0
20260507211504 53 240 9.0 13.0 0.00 0.29 0.00 35 1009.1
20260507211004 53 264 5.0 10.0 0.00 0.31 0.00 36 1009.3
20260507210504 53 244 7.0 20.0 0.00 0.33 0.00 36 1009.4
20260507210004 52 239 12.0 20.0 0.00 0.35 0.00 36 1009.5
20260507205504 53 238 12.0 20.0 0.00 0.38 0.00 36 1009.8
20260507205004 53 277 4.0 16.0 0.00 0.40 0.00 38 1010.2
20260507204505 53 250 8.0 18.0 0.00 0.42 0.00 37 1010.5
20260507204004 53 264 6.0 12.0 0.00 0.45 0.00 37 1010.4
20260507203504 52 260 7.0 18.0 0.00 0.46 0.00 37 1010.5
20260507203004 53 301 11.0 20.0 0.00 0.48 0.00 37 1010.6
20260507202004 54 270 10.0 17.0 0.00 0.50 0.00 36 1010.4
20260507201505 52 269 5.0 14.0 0.00 0.51 0.00 39 1010.5
20260507201004 52 264 7.0 14.0 0.00 0.52 0.00 38 1010.6
20260507200504 53 258 7.0 17.0 0.00 0.53 0.00 38 1010.7
20260507200004 52 176 3.0 8.0 0.00 0.53 0.00 40 1010.6
20260507195504 52 247 7.0 20.0 0.00 0.54 0.00 39 1010.6
20260507195004 52 258 8.0 16.0 0.00 0.55 0.00 40 1010.6
20260507194504 52 290 3.0 7.0 0.00 0.55 0.00 41 1010.8
20260507193004 49 246 12.0 16.0 0.00 0.56 0.00 43 1011.3
20260507192504 49 242 5.0 12.0 0.00 0.56 0.00 44 1011.1
20260507192004 50 239 7.0 13.0 0.00 0.57 0.00 44 1011.0
20260507191504 49 257 9.0 15.0 0.00 0.57 0.00 44 1011.2
20260507191004 49 240 11.0 16.0 0.00 0.57 0.00 44 1011.0
20260507185504 49 215 9.0 15.0 0.00 0.59 0.00 44 1011.3
20260507185004 50 232 9.0 14.0 0.00 0.59 0.00 43 1011.4
20260507184504 49 241 10.0 16.0 0.00 0.60 0.00 43 1011.5
20260507183504 49 224 12.0 20.0 0.00 0.60 0.00 43 1011.5
20260507183004 49 239 14.0 20.0 0.00 0.61 0.00 44 1011.4
20260507182504 49 246 9.0 20.0 0.00 0.61 0.00 44 1011.4
20260507182004 48 244 13.0 24.0 0.00 0.62 0.00 44 1011.3
20260507181504 48 244 13.0 20.0 0.00 0.62 0.00 44 1011.2
20260507181004 48 240 17.0 23.0 0.00 0.62 0.00 44 1011.0
20260507174504 46 235 14.0 26.0 0.00 0.65 0.00 46 1011.6
20260507174004 47 238 16.0 25.0 0.00 0.66 0.00 45 1011.8
20260507173504 47 248 13.0 24.0 0.00 0.66 0.00 45 1012.0
20260507173004 47 244 15.0 23.0 0.00 0.67 0.00 45 1012.1
20260507172504 47 247 15.0 26.0 0.00 0.67 0.00 45 1012.1
20260507172004 47 249 15.0 22.0 0.00 0.67 0.00 45 1012.1
20260507171504 47 243 7.0 20.0 0.00 0.67 0.00 48 1012.2
20260507171003 45 259 13.0 20.0 0.00 0.67 0.00 49 1012.4
20260507170504 44 242 9.0 20.0 0.00 0.67 0.00 50 1012.6
20260507170005 45 248 12.0 18.0 0.00 0.67 0.00 49 1012.7
20260507165004 45 249 6.0 14.0 0.00 0.67 0.00 49 1013.1
20260507164504 44 252 6.0 12.0 0.00 0.67 0.00 49 1012.9
20260507163504 44 238 10.0 18.0 0.00 0.67 0.00 49 1012.7
20260507163004 45 228 14.0 23.0 0.00 0.67 0.00 47 1012.8
20260507162504 45 236 12.0 20.0 0.00 0.67 0.00 47 1013.0
20260507162004 45 237 12.0 23.0 0.00 0.67 0.00 47 1012.8
20260507161504 44 251 12.0 20.0 0.00 0.67 0.00 48 1013.0
20260507161004 44 246 13.0 18.0 0.00 0.67 0.00 48 1012.9
20260507160504 43 234 12.0 20.0 0.00 0.67 0.00 48 1012.7
20260507160005 43 221 9.0 16.0 0.00 0.67 0.00 50 1012.7
20260507155004 42 217 10.0 20.0 0.00 0.67 0.00 50 1013.0
20260507154504 42 225 6.0 13.0 0.00 0.67 0.00 49 1013.1
20260507154004 41 155 2.0 6.0 0.00 0.67 0.00 51 1013.3
20260507153504 41 207 5.0 17.0 0.00 0.67 0.00 52 1013.4
20260507153004 40 188 10.0 20.0 0.00 0.67 0.00 51 1013.4
20260507152504 40 197 13.0 23.0 0.00 0.67 0.00 50 1013.4
20260507152004 40 201 9.0 17.0 0.00 0.67 0.00 51 1013.5
20260507151504 40 222 11.0 25.0 0.00 0.67 0.00 51 1013.7
20260507151004 40 203 9.0 20.0 0.00 0.67 0.00 50 1013.9
20260507150504 40 192 8.0 15.0 0.00 0.67 0.00 50 1014.2
20260507150005 40 190 10.0 16.0 0.00 0.67 0.00 50 1014.4
20260507145504 39 211 6.0 13.0 0.00 0.67 0.00 51 1014.7
20260507145004 39 227 7.0 13.0 0.00 0.67 0.00 51 1014.9
20260507144004 39 246 12.0 23.0 0.00 0.67 0.00 50 1015.3
20260507143004 39 244 12.0 21.0 0.00 0.67 0.00 51 1015.0
20260507142504 39 238 10.0 20.0 0.00 0.67 0.00 51 1015.1
20260507141504 40 245 10.0 18.0 0.00 0.67 0.00 50 1014.9
20260507141004 40 246 12.0 17.0 0.00 0.67 0.00 50 1014.9
20260507140504 41 262 7.0 15.0 0.00 0.67 0.00 49 1015.0
20260507140004 40 263 2.0 12.0 0.00 0.67 0.00 51 1015.1
20260507135505 40 270 9.0 15.0 0.00 0.67 0.00 52 1015.0
20260507135005 40 136 3.0 20.0 0.00 0.67 0.00 52 1015.2
20260507134504 40 231 3.0 12.0 0.00 0.67 0.00 53 1015.3
20260507134003 39 203 8.0 21.0 0.00 0.67 0.00 52 1015.3
20260507133504 39 223 6.0 12.0 0.00 0.67 0.00 52 1015.3
20260507132504 38 208 7.0 17.0 0.00 0.67 0.00 53 1015.2
20260507132004 38 198 9.0 13.0 0.00 0.67 0.00 53 1015.2
20260507131503 38 191 8.0 14.0 0.00 0.67 0.00 52 1015.2
20260507131004 38 204 9.0 13.0 0.00 0.67 0.00 52 1015.2
20260507130504 38 236 9.0 16.0 0.00 0.67 0.00 52 1015.2
20260507125004 37 228 9.0 15.0 0.00 0.67 0.00 53 1015.2
20260507124504 37 235 9.0 14.0 0.00 0.67 0.00 53 1015.2
20260507124004 37 240 9.0 14.0 0.00 0.67 0.00 52 1015.1
20260507123004 37 236 11.0 15.0 0.00 0.67 0.00 53 1015.2
20260507122504 37 236 10.0 14.0 0.00 0.67 0.00 52 1015.3
20260507122005 37 238 9.0 14.0 0.00 0.67 0.00 53 1015.4
20260507121504 36 245 10.0 15.0 0.00 0.67 0.00 53 1015.4
20260507120504 36 244 9.0 17.0 0.00 0.67 0.00 53 1015.2
20260507115504 37 251 13.0 21.0 0.00 0.67 0.00 53 1015.2
20260507115004 36 248 12.0 18.0 0.00 0.67 0.00 53 1015.4
20260507114504 36 247 6.0 14.0 0.00 0.67 0.00 54 1015.6
20260507114004 36 255 5.0 10.0 0.00 0.67 0.00 54 1015.6
20260507113504 36 249 6.0 12.0 0.00 0.67 0.00 54 1015.6
20260507113004 36 249 8.0 13.0 0.00 0.67 0.00 53 1015.4
20260507112504 36 243 6.0 12.0 0.00 0.67 0.00 53 1015.3
20260507112004 36 268 9.0 15.0 0.00 0.67 0.00 53 1015.3
20260507111506 37 251 7.0 14.0 0.00 0.67 0.00 53 1015.5
20260507111003 37 262 9.0 18.0 0.00 0.67 0.00 52 1015.4
20260507110504 37 243 7.0 15.0 0.00 0.67 0.00 52 1015.6
20260507110004 37 260 6.0 16.0 0.00 0.67 0.00 52 1015.6
20260507105504 37 253 10.0 18.0 0.00 0.67 0.00 51 1015.6
20260507105004 36 255 9.0 20.0 0.00 0.67 0.00 51 1016.0
20260507104004 36 250 13.0 21.0 0.00 0.67 0.00 51 1016.0
20260507103504 36 245 12.0 21.0 0.00 0.67 0.00 51 1015.9
20260507103004 36 244 10.0 20.0 0.00 0.67 0.00 51 1015.9
20260507102504 36 255 10.0 21.0 0.00 0.67 0.00 52 1016.0
20260507102006 36 263 9.0 18.0 0.00 0.67 0.00 52 1016.0
20260507101504 36 255 12.0 20.0 0.00 0.67 0.00 51 1016.0
20260507101004 36 248 9.0 22.0 0.00 0.67 0.00 51 1015.9
20260507100504 36 253 15.0 24.0 0.00 0.67 0.00 51 1015.9
20260507100004 36 247 13.0 20.0 0.00 0.67 0.00 51 1015.9
20260507095504 36 247 13.0 23.0 0.00 0.67 0.00 51 1015.9
20260507094004 36 248 16.0 24.0 0.00 0.67 0.00 51 1015.7
20260507093504 36 250 18.0 29.0 0.00 0.67 0.00 51 1015.5
20260507093003 37 245 18.0 24.0 0.00 0.67 0.00 51 1015.6
20260507092504 37 249 16.0 28.0 0.00 0.67 0.00 51 1015.8
20260507092004 37 257 17.0 26.0 0.00 0.67 0.00 51 1015.8
20260507091503 37 246 15.0 22.0 0.00 0.67 0.00 51 1015.8
20260507091004 37 250 16.0 24.0 0.00 0.67 0.00 51 1015.7
20260507090504 37 254 14.0 23.0 0.00 0.67 0.00 52 1015.8
20260507085504 37 252 12.0 22.0 0.00 0.67 0.00 52 1015.8
20260507085004 36 250 15.0 23.0 0.00 0.67 0.00 52 1015.5
20260507084504 36 248 13.0 21.0 0.00 0.67 0.00 52 1015.5
20260507084004 36 248 13.0 20.0 0.00 0.67 0.00 52 1015.4
20260507083005 37 245 14.0 23.0 0.00 0.67 0.00 50 1015.3
20260507082004 37 245 13.0 22.0 0.00 0.67 0.00 51 1015.3
20260507081504 36 256 13.0 22.0 0.00 0.67 0.00 50 1015.3
20260507081004 37 248 15.0 24.0 0.00 0.67 0.00 50 1015.6
20260507080504 36 252 15.0 24.0 0.00 0.67 0.00 50 1015.5
20260507075504 36 246 13.0 20.0 0.00 0.67 0.00 50 1016.0
20260507074504 36 241 7.0 15.0 0.00 0.67 0.00 50 1016.5
20260507074004 36 258 5.0 10.0 0.00 0.67 0.00 50 1016.5
20260507073504 35 251 6.0 12.0 0.00 0.67 0.00 50 1016.5
20260507073004 35 246 6.0 12.0 0.00 0.67 0.00 50 1016.6
20260507072504 34 280 7.0 14.0 0.00 0.67 0.00 51 1016.6
20260507071504 35 290 6.0 12.0 0.00 0.67 0.00 51 1016.7
20260507071003 35 263 6.0 14.0 0.00 0.67 0.00 51 1016.8
20260507070504 35 276 7.0 15.0 0.00 0.67 0.00 50 1016.9
20260507070009 35 266 5.0 12.0 0.00 0.67 0.00 50 1017.0
20260507065504 35 263 5.0 14.0 0.00 0.67 0.00 51 1016.7
20260507065004 35 252 12.0 20.0 0.00 0.67 0.00 50 1016.6
20260507064504 35 256 10.0 23.0 0.00 0.67 0.00 51 1016.6
20260507064004 35 254 9.0 16.0 0.00 0.67 0.00 51 1016.7
20260507063504 35 265 12.0 23.0 0.00 0.67 0.00 50 1016.9
20260507063004 35 265 7.0 15.0 0.00 0.67 0.00 50 1017.1
20260507062504 35 253 10.0 14.0 0.00 0.67 0.00 50 1017.2
20260507062004 35 254 9.0 15.0 0.00 0.67 0.00 49 1017.2
20260507061504 35 250 13.0 21.0 0.00 0.67 0.00 49 1017.2
20260507060504 35 269 13.0 20.0 0.00 0.67 0.00 49 1017.2
20260507060004 35 260 10.0 24.0 0.00 0.67 0.00 49 1017.3
20260507054504 35 247 9.0 16.0 0.00 0.67 0.67 48 1017.7
20260507054004 35 256 13.0 21.0 0.00 0.67 0.67 48 1017.7
20260507053504 35 251 14.0 20.0 0.00 0.67 0.67 48 1017.7
20260507052504 35 257 9.0 20.0 0.00 0.67 0.67 48 1017.6
20260507052004 34 251 12.0 20.0 0.00 0.67 0.67 49 1017.4
20260507051504 34 266 10.0 20.0 0.00 0.67 0.67 50 1017.4
20260507050504 34 260 6.0 14.0 0.00 0.67 0.67 50 1017.4
20260507045004 34 278 9.0 18.0 0.00 0.67 0.67 51 1017.7
20260507044504 34 266 7.0 18.0 0.00 0.67 0.67 50 1017.6
20260507044004 35 273 10.0 20.0 0.00 0.67 0.67 50 1017.6
20260507043504 35 263 12.0 21.0 0.00 0.67 0.67 50 1017.4
20260507043004 34 258 9.0 16.0 0.00 0.67 0.67 50 1017.5
20260507042504 35 262 10.0 17.0 0.00 0.67 0.67 50 1017.3
20260507042004 35 275 13.0 21.0 0.00 0.67 0.67 50 1017.3
20260507041504 34 275 12.0 25.0 0.00 0.67 0.67 51 1017.3
20260507041004 35 265 20.0 25.0 0.00 0.67 0.67 51 1017.2
20260507040504 35 263 12.0 22.0 0.00 0.67 0.67 50 1017.1
20260507040004 35 261 13.0 23.0 0.00 0.67 0.67 50 1017.2
20260507035504 35 257 12.0 23.0 0.00 0.67 0.67 50 1017.2
20260507035003 35 269 13.0 24.0 0.00 0.67 0.67 50 1017.6
20260507034503 35 265 12.0 26.0 0.00 0.67 0.67 49 1017.6
20260507034004 35 268 12.0 28.0 0.00 0.67 0.67 50 1017.6
20260507033504 35 265 14.0 23.0 0.00 0.67 0.67 49 1017.6
20260507033004 35 255 17.0 26.0 0.00 0.67 0.67 50 1017.5
20260507032504 35 257 13.0 22.0 0.00 0.67 0.67 51 1017.1
20260507032004 35 254 15.0 24.0 0.00 0.67 0.67 50 1017.1
20260507031504 35 255 16.0 23.0 0.00 0.67 0.67 50 1016.9
20260507031004 35 255 16.0 23.0 0.00 0.67 0.67 51 1016.9
20260507030504 35 256 15.0 25.0 0.00 0.67 0.67 51 1016.9
20260507030004 35 246 12.0 20.0 0.00 0.67 0.67 51 1016.9
20260507025004 35 261 10.0 24.0 0.00 0.67 0.67 52 1016.7
20260507024504 35 259 9.0 18.0 0.00 0.67 0.67 53 1016.8
20260507023004 35 262 8.0 18.0 0.00 0.67 0.67 53 1016.5
20260507022504 35 260 7.0 22.0 0.00 0.67 0.67 53 1016.7
20260507022004 35 262 10.0 22.0 0.00 0.67 0.67 53 1016.5
20260507021503 35 248 9.0 17.0 0.00 0.67 0.67 53 1016.5
20260507020004 35 243 9.0 17.0 0.00 0.67 0.67 52 1016.3
20260507015504 35 248 10.0 17.0 0.00 0.67 0.67 52 1016.2
20260507015004 36 244 10.0 17.0 0.00 0.67 0.67 52 1016.2
20260507014504 36 234 7.0 13.0 0.00 0.67 0.67 52 1016.3
20260507014004 36 245 7.0 16.0 0.00 0.67 0.67 53 1016.2
20260507013504 36 242 6.0 13.0 0.01 0.67 0.67 52 1016.2
20260507013005 37 242 6.0 10.0 0.01 0.67 0.67 51 1016.2
20260507012503 37 246 5.0 12.0 0.01 0.67 0.67 50 1016.2
20260507011504 38 254 7.0 13.0 0.01 0.67 0.67 48 1016.1
20260507010504 38 254 7.0 18.0 0.01 0.67 0.67 49 1016.1
20260507005504 39 239 4.0 14.0 0.01 0.67 0.67 48 1016.4
20260507005004 39 241 6.0 13.0 0.01 0.67 0.67 48 1016.7
20260507004504 39 264 5.0 18.0 0.02 0.67 0.67 48 1016.7